FW0019 Weather Reports


Display with metric or nautical units.
time (UTC)temp
F
wind
direction
speed
MPH
gust
MPH
rain 1hr
in
rain 24hr
in
rain mn
in
humidity
%
barometer
mb
20260902084526 62 115 5.0 10.0 0.00 0.00 0.00 25 880.5
20260902083027 61 119 4.0 10.0 0.00 0.00 0.00 28 880.5
20260902081518 60 92 6.0 13.0 0.00 0.00 0.00 26 880.5
20260902080016 60 98 4.0 9.0 0.00 0.00 0.00 26 880.5
20260902074518 60 112 5.0 9.0 0.00 0.00 0.00 26 880.4
20260902073012 59 96 3.0 8.0 0.00 0.00 0.00 27 880.5
20260902071510 58 76 3.0 9.0 0.00 0.00 0.00 28 880.4
20260902070009 58 94 2.0 7.0 0.00 0.00 0.00 29 880.4
20260902064508 59 75 2.0 8.0 0.00 0.00 0.00 28 880.3
20260902063015 59 101 3.0 9.0 0.00 0.00 0.00 29 880.3
20260902061521 60 37 4.0 9.0 0.00 0.00 0.00 28 880.1
20260902060015 59 82 2.0 8.0 0.00 0.00 0.00 28 880.0
20260902054510 60 76 3.0 9.0 0.00 0.00 0.00 28 880.0
20260902053008 60 102 4.0 10.0 0.00 0.00 0.00 28 880.1
20260902051505 60 106 6.0 10.0 0.00 0.00 0.00 28 880.2
20260902050007 59 67 3.0 8.0 0.00 0.00 0.00 30 880.2
20260902044504 59 90 3.0 9.0 0.00 0.00 0.00 32 880.2
20260902043004 58 71 3.0 9.0 0.00 0.00 0.00 34 880.2
20260902041506 58 76 4.0 8.0 0.00 0.00 0.00 37 879.8
20260902040001 59 92 5.0 9.0 0.00 0.00 0.00 52 879.7
20260902034504 59 117 5.0 9.0 0.00 0.00 0.00 55 879.5
20260902033105 60 118 5.0 13.0 0.00 0.00 0.00 57 879.3
20260902031555 61 97 6.0 12.0 0.00 0.00 0.00 50 879.2
20260902030054 62 109 7.0 16.0 0.00 0.00 0.00 54 879.0
20260902024553 62 108 9.0 15.0 0.00 0.00 0.00 53 878.9
20260902023052 63 128 7.0 13.0 0.00 0.00 0.00 52 878.9
20260902021549 64 98 6.0 14.0 0.00 0.00 0.00 49 878.8
20260902020056 65 119 7.0 15.0 0.00 0.00 0.00 46 878.9
20260902014547 66 76 9.0 17.0 0.00 0.00 0.00 44 878.9
20260902013048 67 154 11.0 22.0 0.00 0.00 0.00 43 878.9
20260902011545 68 137 11.0 21.0 0.00 0.00 0.00 42 879.0
20260902010045 69 114 13.0 20.0 0.00 0.00 0.00 43 879.1
20260902004545 70 92 10.0 22.0 0.00 0.00 0.00 44 879.2
20260902003046 71 106 13.0 23.0 0.00 0.00 0.00 46 879.1
20260902001552 72 146 12.0 21.0 0.00 0.00 0.00 45 879.3
20260902000045 73 111 12.0 22.0 0.00 0.00 0.00 45 879.4
20260901234542 73 132 12.0 18.0 0.00 0.00 0.00 45 879.5
20260901233056 74 143 13.0 24.0 0.00 0.00 0.00 45 879.6
20260901231541 75 121 11.0 31.0 0.00 0.00 0.00 44 879.6
20260901230041 75 126 11.0 21.0 0.00 0.00 0.00 45 879.8
20260901224540 76 157 12.0 24.0 0.00 0.00 0.00 43 879.8
20260901223043 76 128 9.0 23.0 0.00 0.00 0.00 42 879.9
20260901221538 76 138 12.0 21.0 0.00 0.00 0.00 39 879.9
20260901214536 77 123 11.0 23.0 0.00 0.00 0.00 33 880.3
20260901213035 77 136 9.0 19.0 0.00 0.00 0.00 31 880.3
20260901211538 77 148 10.0 19.0 0.00 0.00 0.00 30 880.4
20260901210038 78 143 11.0 17.0 0.00 0.00 0.00 31 880.4
20260901204531 77 115 12.0 19.0 0.00 0.00 0.00 32 880.5
20260901203037 77 148 10.0 20.0 0.00 0.00 0.00 32 880.6
20260901201533 77 127 10.0 22.0 0.00 0.00 0.00 33 880.7
20260901200029 77 139 12.0 20.0 0.00 0.00 0.00 31 880.7
20260901194532 77 139 9.0 18.0 0.00 0.00 0.00 28 880.8
20260901193027 77 149 8.0 18.0 0.00 0.00 0.00 26 881.0
20260901191525 76 103 8.0 21.0 0.00 0.00 0.00 28 880.9
20260901190025 76 166 6.0 24.0 0.00 0.00 0.00 30 881.0
20260901184521 75 175 8.0 17.0 0.00 0.00 0.00 31 881.1
20260901183019 75 100 8.0 15.0 0.00 0.00 0.00 29 881.3
20260901181527 75 110 6.0 16.0 0.00 0.00 0.00 28 881.2
20260901180016 74 164 9.0 18.0 0.00 0.00 0.00 27 881.1
20260901174514 73 107 7.0 17.0 0.00 0.00 0.00 25 881.2
20260901173010 72 99 6.0 14.0 0.00 0.00 0.00 24 881.1
20260901171506 72 134 10.0 19.0 0.00 0.00 0.00 20 881.0
20260901170009 71 142 10.0 15.0 0.00 0.00 0.00 20 880.8
20260901164507 71 132 9.0 16.0 0.00 0.00 0.00 19 880.6
20260901163003 71 152 11.0 16.0 0.00 0.00 0.00 19 880.3
20260901161601 71 128 7.0 15.0 0.00 0.00 0.00 20 880.3
20260901160057 70 157 9.0 15.0 0.00 0.00 0.00 19 880.0
20260901154605 70 122 9.0 16.0 0.00 0.00 0.00 20 879.9
20260901153053 69 130 9.0 16.0 0.00 0.00 0.00 19 879.9
20260901151554 69 146 7.0 14.0 0.00 0.00 0.00 20 880.0
20260901150100 68 142 8.0 13.0 0.00 0.00 0.00 21 879.9
20260901144547 67 130 8.0 14.0 0.00 0.00 0.00 21 879.8
20260901143043 67 112 7.0 14.0 0.00 0.00 0.00 22 879.8
20260901141540 66 97 8.0 12.0 0.00 0.00 0.00 22 879.8
20260901140040 65 113 7.0 13.0 0.00 0.00 0.00 22 879.7
20260901134540 64 77 5.0 11.0 0.00 0.00 0.00 22 879.6
20260901133034 64 110 7.0 11.0 0.00 0.00 0.00 22 879.4
20260901131543 63 97 5.0 12.0 0.00 0.00 0.00 23 879.4
20260901130032 63 91 5.0 10.0 0.00 0.00 0.00 24 879.4
20260901124532 62 96 5.0 10.0 0.00 0.00 0.00 25 879.3
20260901123037 62 71 6.0 9.0 0.00 0.00 0.00 24 879.3
20260901121530 63 103 5.0 10.0 0.00 0.00 0.00 24 879.2
20260901120030 63 113 5.0 9.0 0.00 0.00 0.00 24 879.1
20260901114538 62 89 5.0 9.0 0.00 0.00 0.00 24 879.1
20260901113029 63 76 6.0 10.0 0.00 0.00 0.00 24 879.0
20260901111528 63 85 6.0 11.0 0.00 0.00 0.00 24 879.0
20260901110026 63 85 6.0 10.0 0.00 0.00 0.00 25 878.9
20260901104524 62 91 6.0 10.0 0.00 0.00 0.00 26 879.0
20260901103024 62 88 5.0 10.0 0.00 0.00 0.00 27 879.2
20260901101522 62 108 5.0 9.0 0.00 0.00 0.00 27 879.3
20260901100022 62 109 5.0 8.0 0.00 0.00 0.00 27 879.3
20260901094530 62 95 3.0 9.0 0.00 0.00 0.00 27 879.4
20260901093021 62 88 3.0 8.0 0.00 0.00 0.00 27 879.4
20260901091520 63 115 4.0 10.0 0.00 0.00 0.00 26 879.4
20260901090019 63 83 4.0 8.0 0.00 0.00 0.00 25 879.3